Location: Unspecified
(0.0000°N, 0.0000°E)
Time: 16:23:29
(UTC+00:00)

Tiros 1 despin weight - Pass Details

Date: 26 November 2019
Orbit: 594 x 642 km, 48.2° (Epoch: 12 December)

Event Time Altitude Azimuth Distance (km) Brightness Sun altitude
Rises 18:00:11 0° 349° (N) 2,852 ? -3.0°
Reaches altitude 10° 18:03:11 10° 10° (N) 1,962 ? -3.7°
Maximum altitude 18:06:05 17° 50° (NE) 1,577 ? -4.4°
Drops below altitude 10° 18:09:01 10° 91° (E) 1,988 ? -5.1°
Sets 18:12:04 0° 111° (ESE) 2,907 ? -5.8°
